ENY4268 KLEX-KORD

Flight info

Callsign ENY4268
Flight time 1h 7m
Altitude 32000
Route BONNT VEECK5
Aircraft E75L/M-SDE3GILORVW/S

Departure

Time 2026-04-12 02:02
Airport Blue Grass Airport (KLEX)

Arrival

Time 2026-04-12 03:09
Airport Chicago O'Hare International Airport (KORD)
Time Latitude Longitude Altitude Speed Heading
2026-04-12 01:27 38.03587 -84.59981 968 ft 0 kts 53°
2026-04-12 01:53 38.03587 -84.59982 968 ft 0 kts 53°
2026-04-12 01:54 38.03578 -84.59995 968 ft 2 kts 53°
2026-04-12 01:54 38.03569 -84.60010 967 ft 2 kts 53°
2026-04-12 01:54 38.03561 -84.60024 966 ft 2 kts 53°
2026-04-12 01:54 38.03556 -84.60033 966 ft 1 kts 52°
2026-04-12 01:55 38.03550 -84.60036 966 ft 1 kts 343°
2026-04-12 01:55 38.03545 -84.60033 966 ft 1 kts 313°
2026-04-12 01:55 38.03542 -84.60029 965 ft 0 kts 324°
2026-04-12 02:00 38.02728 -84.61439 904 ft 0 kts 324°
2026-04-12 02:00 38.02750 -84.61457 905 ft 5 kts 324°
2026-04-12 02:01 38.02780 -84.61483 906 ft 5 kts 334°
2026-04-12 02:01 38.02830 -84.61437 911 ft 26 kts 44°
2026-04-12 02:01 38.03117 -84.61115 937 ft 83 kts 40°
2026-04-12 02:01 38.03693 -84.60477 963 ft 132 kts 41°
2026-04-12 02:02 38.04450 -84.59639 1234 ft 147 kts 41°
2026-04-12 02:02 38.05241 -84.58781 1644 ft 158 kts 40°
2026-04-12 02:02 38.06136 -84.57927 2177 ft 162 kts 35°
2026-04-12 02:02 38.07080 -84.57144 2620 ft 172 kts 32°
2026-04-12 02:03 38.08123 -84.56344 3144 ft 176 kts 31°
2026-04-12 02:03 38.09229 -84.55496 3297 ft 205 kts 33°
2026-04-12 02:03 38.10492 -84.54563 3863 ft 211 kts 24°
2026-04-12 02:03 38.11980 -84.53940 3796 ft 253 kts 11°
2026-04-12 02:04 38.13733 -84.53720 4501 ft 253 kts 359°
2026-04-12 02:04 38.15463 -84.53876 5236 ft 254 kts 348°
2026-04-12 02:04 38.17216 -84.54467 5678 ft 267 kts 336°
2026-04-12 02:04 38.18963 -84.55465 6008 ft 284 kts 332°
2026-04-12 02:05 38.20779 -84.56632 6350 ft 299 kts 329°
2026-04-12 02:05 38.22532 -84.57855 7491 ft 276 kts 328°
2026-04-12 02:05 38.24025 -84.58959 8341 ft 227 kts 326°
2026-04-12 02:05 38.25392 -84.60004 8144 ft 240 kts 329°
2026-04-12 02:06 38.26918 -84.60982 8304 ft 248 kts 332°
2026-04-12 02:06 38.28397 -84.61865 9185 ft 221 kts 331°
2026-04-12 02:06 38.29720 -84.62727 9565 ft 218 kts 327°
2026-04-12 02:06 38.31082 -84.63815 9299 ft 246 kts 324°
2026-04-12 02:07 38.32571 -84.64992 9545 ft 248 kts 326°
2026-04-12 02:07 38.33979 -84.66071 10325 ft 237 kts 326°
2026-04-12 02:07 38.35495 -84.67048 10586 ft 254 kts 342°
2026-04-12 02:07 38.37270 -84.67646 10653 ft 276 kts 341°
2026-04-12 02:08 38.39133 -84.68381 11317 ft 275 kts 339°
2026-04-12 02:08 38.40864 -84.69121 12169 ft 261 kts 338°
2026-04-12 02:08 38.42629 -84.69903 12203 ft 280 kts 338°
2026-04-12 02:08 38.44519 -84.70794 12364 ft 298 kts 336°
2026-04-12 02:09 38.46379 -84.71760 13309 ft 284 kts 334°
2026-04-12 02:09 38.48114 -84.72691 14037 ft 265 kts 334°
2026-04-12 02:09 38.49821 -84.73614 14292 ft 264 kts 334°
2026-04-12 02:09 38.51534 -84.74553 14351 ft 271 kts 334°
2026-04-12 02:10 38.53278 -84.75524 14430 ft 276 kts 334°
2026-04-12 02:10 38.54874 -84.76416 15711 ft 226 kts 333°
2026-04-12 02:10 38.56105 -84.77089 16656 ft 188 kts 333°
2026-04-12 02:10 38.57359 -84.77789 16537 ft 203 kts 332°
2026-04-12 02:11 38.58674 -84.78544 16588 ft 209 kts 332°
2026-04-12 02:11 38.60009 -84.79327 16620 ft 216 kts 332°
2026-04-12 02:11 38.61406 -84.80165 16650 ft 223 kts 331°
2026-04-12 02:11 38.62822 -84.81033 16684 ft 230 kts 331°
2026-04-12 02:12 38.64293 -84.81951 16719 ft 238 kts 330°
2026-04-12 02:12 38.65783 -84.82900 16748 ft 245 kts 330°
2026-04-12 02:12 38.67320 -84.83895 16810 ft 250 kts 329°
2026-04-12 02:12 38.68883 -84.84923 16825 ft 257 kts 329°
2026-04-12 02:13 38.70491 -84.85997 16845 ft 264 kts 329°
2026-04-12 02:13 38.72149 -84.87119 16863 ft 270 kts 329°
2026-04-12 02:13 38.73803 -84.88255 16880 ft 276 kts 329°
2026-04-12 02:13 38.75523 -84.89451 16907 ft 282 kts 329°
2026-04-12 02:14 38.77243 -84.90662 16928 ft 287 kts 328°
2026-04-12 02:14 38.79013 -84.91921 16935 ft 292 kts 328°
2026-04-12 02:14 38.80788 -84.93198 16949 ft 297 kts 328°
2026-04-12 02:14 38.82613 -84.94526 16964 ft 302 kts 328°
2026-04-12 02:15 38.84444 -84.95873 16975 ft 306 kts 327°
2026-04-12 02:15 38.86309 -84.97257 16979 ft 310 kts 327°
2026-04-12 02:15 38.88173 -84.98654 16990 ft 314 kts 327°
2026-04-12 02:15 38.90060 -85.00082 16996 ft 317 kts 327°
2026-04-12 02:16 38.92001 -85.01493 16992 ft 322 kts 336°
2026-04-12 02:16 38.94228 -85.01911 17030 ft 332 kts
2026-04-12 02:16 38.96507 -85.01437 17076 ft 334 kts
2026-04-12 02:16 38.98808 -85.00914 17093 ft 337 kts
2026-04-12 02:17 39.01116 -85.00390 17096 ft 340 kts
2026-04-12 02:17 39.03457 -84.99869 17093 ft 341 kts
2026-04-12 02:17 39.05810 -84.99896 17090 ft 338 kts 348°
2026-04-12 02:17 39.08107 -85.00547 17096 ft 337 kts 341°
2026-04-12 02:18 39.10352 -85.01430 17134 ft 338 kts 339°
2026-04-12 02:18 39.12575 -85.02406 17175 ft 338 kts 338°
2026-04-12 02:18 39.14803 -85.03424 17240 ft 338 kts 337°
2026-04-12 02:18 39.17036 -85.04461 17346 ft 341 kts 337°
2026-04-12 02:19 39.19259 -85.05500 17532 ft 341 kts 337°
2026-04-12 02:19 39.21491 -85.06548 17741 ft 340 kts 337°
2026-04-12 02:19 39.23698 -85.07587 17940 ft 340 kts 336°
2026-04-12 02:19 39.25929 -85.08638 18102 ft 341 kts 336°
2026-04-12 02:20 39.28133 -85.09677 18275 ft 341 kts 336°
2026-04-12 02:20 39.30370 -85.10732 18434 ft 342 kts 336°
2026-04-12 02:20 39.32620 -85.11794 18588 ft 342 kts 336°
2026-04-12 02:20 39.34843 -85.12845 18735 ft 343 kts 336°
2026-04-12 02:21 39.37094 -85.13908 18883 ft 343 kts 336°
2026-04-12 02:21 39.39320 -85.14962 19037 ft 344 kts 336°
2026-04-12 02:21 39.41576 -85.16029 19181 ft 344 kts 336°
2026-04-12 02:21 39.43828 -85.17096 19336 ft 344 kts 336°
2026-04-12 02:22 39.46088 -85.18167 19471 ft 345 kts 336°
2026-04-12 02:22 39.48361 -85.19246 19603 ft 346 kts 336°
2026-04-12 02:22 39.50599 -85.20309 19740 ft 346 kts 336°
2026-04-12 02:22 39.52873 -85.21389 19866 ft 347 kts 336°
2026-04-12 02:23 39.55133 -85.22463 19984 ft 348 kts 336°
2026-04-12 02:23 39.57400 -85.23542 20126 ft 348 kts 336°
2026-04-12 02:23 39.59654 -85.24614 20270 ft 348 kts 336°
2026-04-12 02:23 39.61948 -85.25709 20475 ft 355 kts 336°
2026-04-12 02:24 39.64268 -85.26816 20954 ft 356 kts 336°
2026-04-12 02:24 39.66606 -85.27931 21493 ft 356 kts 336°
2026-04-12 02:24 39.68916 -85.29034 22020 ft 355 kts 336°
2026-04-12 02:24 39.71244 -85.30146 22494 ft 356 kts 336°
2026-04-12 02:25 39.73573 -85.31259 22908 ft 358 kts 336°
2026-04-12 02:25 39.75899 -85.32372 23283 ft 361 kts 336°
2026-04-12 02:25 39.78276 -85.33511 23684 ft 363 kts 336°
2026-04-12 02:25 39.80664 -85.34654 24131 ft 364 kts 336°
2026-04-12 02:26 39.83038 -85.35792 24599 ft 364 kts 336°
2026-04-12 02:26 39.85384 -85.36917 25064 ft 364 kts 336°
2026-04-12 02:26 39.87777 -85.38066 25294 ft 370 kts 335°
2026-04-12 02:26 39.90210 -85.39236 25316 ft 381 kts 336°
2026-04-12 02:27 39.92746 -85.40456 25320 ft 392 kts 336°
2026-04-12 02:27 39.95311 -85.41689 25312 ft 394 kts 336°
2026-04-12 02:27 39.97882 -85.42927 25305 ft 395 kts 336°
2026-04-12 02:27 40.00462 -85.44170 25307 ft 393 kts 336°
2026-04-12 02:28 40.03012 -85.45400 25310 ft 394 kts 336°
2026-04-12 02:28 40.05587 -85.46644 25304 ft 392 kts 336°
2026-04-12 02:28 40.08129 -85.47871 25308 ft 394 kts 336°
2026-04-12 02:28 40.10717 -85.49123 25310 ft 392 kts 335°
2026-04-12 02:29 40.13277 -85.50362 25312 ft 393 kts 336°
2026-04-12 02:29 40.15814 -85.51591 25313 ft 392 kts 336°
2026-04-12 02:29 40.18372 -85.52830 25311 ft 392 kts 336°
2026-04-12 02:29 40.20942 -85.54076 25311 ft 391 kts 336°
2026-04-12 02:30 40.23470 -85.55304 25312 ft 393 kts 336°
2026-04-12 02:30 40.26054 -85.56560 25315 ft 392 kts 336°
2026-04-12 02:30 40.28587 -85.57792 25312 ft 392 kts 336°
2026-04-12 02:30 40.31144 -85.59036 25307 ft 392 kts 336°
2026-04-12 02:31 40.33700 -85.60281 25064 ft 393 kts 336°
2026-04-12 02:31 40.36245 -85.61521 25064 ft 388 kts 336°
2026-04-12 02:31 40.38674 -85.62985 25041 ft 385 kts 322°
2026-04-12 02:31 40.40477 -85.65535 25079 ft 380 kts 298°
2026-04-12 02:32 40.41610 -85.68620 25084 ft 382 kts 300°
2026-04-12 02:32 40.43130 -85.71495 25076 ft 381 kts 306°
2026-04-12 02:32 40.44778 -85.74214 25063 ft 382 kts 308°
2026-04-12 02:32 40.46438 -85.76840 25048 ft 370 kts 308°
2026-04-12 02:33 40.48102 -85.79436 25066 ft 379 kts 308°
2026-04-12 02:33 40.49829 -85.82119 25066 ft 384 kts 309°
2026-04-12 02:33 40.51540 -85.84772 25060 ft 385 kts 308°
2026-04-12 02:33 40.53266 -85.87449 25052 ft 383 kts 308°
2026-04-12 02:34 40.54979 -85.90109 25049 ft 381 kts 308°
2026-04-12 02:34 40.56690 -85.92767 25050 ft 382 kts 308°
2026-04-12 02:34 40.58399 -85.95424 25043 ft 380 kts 308°
2026-04-12 02:34 40.60118 -85.98099 25042 ft 380 kts 309°
2026-04-12 02:35 40.61812 -86.00738 25041 ft 381 kts 309°
2026-04-12 02:35 40.63498 -86.03366 24851 ft 370 kts 308°
2026-04-12 02:35 40.65125 -86.05906 24633 ft 367 kts 308°
2026-04-12 02:35 40.66773 -86.08479 24426 ft 365 kts 308°
2026-04-12 02:36 40.68422 -86.11056 24223 ft 366 kts 308°
2026-04-12 02:36 40.70057 -86.13615 24021 ft 366 kts 308°
2026-04-12 02:36 40.71684 -86.16162 23822 ft 365 kts 308°
2026-04-12 02:36 40.73302 -86.18697 23617 ft 363 kts 308°
2026-04-12 02:37 40.74925 -86.21242 23414 ft 363 kts 308°
2026-04-12 02:37 40.76555 -86.23801 23212 ft 362 kts 309°
2026-04-12 02:37 40.78177 -86.26347 23011 ft 362 kts 309°
2026-04-12 02:37 40.79782 -86.28870 22817 ft 362 kts 308°
2026-04-12 02:38 40.81392 -86.31405 22616 ft 361 kts 308°
2026-04-12 02:38 40.83002 -86.33939 22355 ft 359 kts 308°
2026-04-12 02:38 40.84591 -86.36444 22086 ft 358 kts 308°
2026-04-12 02:38 40.86200 -86.38981 21811 ft 356 kts 308°
2026-04-12 02:39 40.87782 -86.41479 21543 ft 355 kts 308°
2026-04-12 02:39 40.89350 -86.43956 21275 ft 355 kts 308°
2026-04-12 02:39 40.90931 -86.46455 21008 ft 352 kts 308°
2026-04-12 02:39 40.92497 -86.48931 20735 ft 350 kts 308°
2026-04-12 02:40 40.94037 -86.51369 20461 ft 349 kts 308°
2026-04-12 02:40 40.95603 -86.53852 20185 ft 350 kts 308°
2026-04-12 02:40 40.97146 -86.56300 19916 ft 349 kts 308°
2026-04-12 02:40 40.98678 -86.58732 19646 ft 346 kts 308°
2026-04-12 02:41 41.00225 -86.61189 19369 ft 345 kts 308°
2026-04-12 02:41 41.01760 -86.63630 19096 ft 345 kts 308°
2026-04-12 02:41 41.03334 -86.66138 18867 ft 369 kts 307°
2026-04-12 02:41 41.05009 -86.68806 18632 ft 381 kts 308°
2026-04-12 02:42 41.06719 -86.71530 18371 ft 381 kts 308°
2026-04-12 02:42 41.08387 -86.74191 18110 ft 378 kts 307°
2026-04-12 02:42 41.10078 -86.76892 17844 ft 378 kts 307°
2026-04-12 02:43 41.13411 -86.82222 17309 ft 375 kts 307°
2026-04-12 02:43 41.15044 -86.84836 17058 ft 374 kts 307°
2026-04-12 02:43 41.16708 -86.87503 16798 ft 373 kts 307°
2026-04-12 02:43 41.18341 -86.90122 16530 ft 371 kts 307°
2026-04-12 02:44 41.20002 -86.92788 16265 ft 370 kts 307°
2026-04-12 02:44 41.21632 -86.95408 15997 ft 368 kts 307°
2026-04-12 02:44 41.23254 -86.98016 15728 ft 366 kts 307°
2026-04-12 02:44 41.24850 -87.00584 15474 ft 365 kts 307°
2026-04-12 02:45 41.26473 -87.03199 15208 ft 364 kts 306°
2026-04-12 02:45 41.28079 -87.05788 14937 ft 363 kts 306°
2026-04-12 02:45 41.29664 -87.08346 14675 ft 360 kts 306°
2026-04-12 02:45 41.31256 -87.10918 14400 ft 359 kts 306°
2026-04-12 02:46 41.32836 -87.13472 14129 ft 358 kts 306°
2026-04-12 02:46 41.34433 -87.16054 13862 ft 357 kts 306°
2026-04-12 02:46 41.35989 -87.18572 13607 ft 357 kts 307°
2026-04-12 02:46 41.37781 -87.20896 13330 ft 359 kts 314°
2026-04-12 02:47 41.39647 -87.23116 13061 ft 358 kts 314°
2026-04-12 02:47 41.41492 -87.25305 12805 ft 358 kts 316°
2026-04-12 02:47 41.43664 -87.26960 12547 ft 365 kts 332°
2026-04-12 02:47 41.45761 -87.28798 12292 ft 354 kts 312°
2026-04-12 02:48 41.47415 -87.31183 12044 ft 351 kts 307°
2026-04-12 02:48 41.48972 -87.33682 11775 ft 348 kts 306°
2026-04-12 02:48 41.50568 -87.36080 11490 ft 351 kts 317°
2026-04-12 02:48 41.52586 -87.37942 11246 ft 353 kts 322°
2026-04-12 02:49 41.54639 -87.39764 11036 ft 352 kts 322°
2026-04-12 02:49 41.56675 -87.41584 11015 ft 351 kts 322°
2026-04-12 02:49 41.58676 -87.43377 11009 ft 351 kts 322°
2026-04-12 02:49 41.60714 -87.45204 11005 ft 350 kts 322°
2026-04-12 02:50 41.62748 -87.47031 11001 ft 351 kts 322°
2026-04-12 02:50 41.64775 -87.48852 11005 ft 352 kts 322°
2026-04-12 02:50 41.66688 -87.50853 11007 ft 348 kts 316°
2026-04-12 02:50 41.68525 -87.52946 11005 ft 348 kts 316°
2026-04-12 02:51 41.70374 -87.55051 10849 ft 344 kts 316°
2026-04-12 02:51 41.72135 -87.57055 10617 ft 321 kts 316°
2026-04-12 02:51 41.73783 -87.58927 10386 ft 302 kts 314°
2026-04-12 02:51 41.74890 -87.61091 10135 ft 272 kts 286°
2026-04-12 02:52 41.75482 -87.63394 9915 ft 258 kts 288°
2026-04-12 02:52 41.76176 -87.65622 9710 ft 260 kts 290°
2026-04-12 02:52 41.76932 -87.67827 9567 ft 261 kts 291°
2026-04-12 02:52 41.77719 -87.70016 9380 ft 262 kts 292°
2026-04-12 02:53 41.78528 -87.72221 9189 ft 263 kts 292°
2026-04-12 02:53 41.79343 -87.74417 8990 ft 263 kts 292°
2026-04-12 02:53 41.80991 -87.78833 8316 ft 263 kts 292°
2026-04-12 02:54 41.81814 -87.81036 7961 ft 264 kts 292°
2026-04-12 02:54 41.82625 -87.83206 7611 ft 263 kts 292°
2026-04-12 02:54 41.83445 -87.85403 7264 ft 264 kts 292°
2026-04-12 02:54 41.84261 -87.87591 7009 ft 262 kts 291°
2026-04-12 02:55 41.85087 -87.89807 6991 ft 263 kts 291°
2026-04-12 02:55 41.85897 -87.91981 6985 ft 263 kts 292°
2026-04-12 02:55 41.86974 -87.93995 6981 ft 273 kts 318°
2026-04-12 02:55 41.88775 -87.94946 7009 ft 287 kts 352°
2026-04-12 02:56 41.90659 -87.95610 7188 ft 276 kts 323°
2026-04-12 02:56 41.91980 -87.97366 7412 ft 266 kts 297°
2026-04-12 02:56 41.92813 -87.99533 7886 ft 263 kts 289°
2026-04-12 02:56 41.93353 -88.01926 7285 ft 264 kts 276°
2026-04-12 02:57 41.93509 -88.04295 7074 ft 256 kts 264°
2026-04-12 02:57 41.93169 -88.06577 6998 ft 249 kts 248°
2026-04-12 02:57 41.92546 -88.08751 6982 ft 250 kts 246°
2026-04-12 02:57 41.91909 -88.10924 6895 ft 252 kts 246°
2026-04-12 02:58 41.91268 -88.13123 6607 ft 252 kts 246°
2026-04-12 02:58 41.90645 -88.15321 6326 ft 250 kts 246°
2026-04-12 02:58 41.90045 -88.17494 5967 ft 251 kts 246°
2026-04-12 02:58 41.89439 -88.19701 5580 ft 251 kts 246°
2026-04-12 02:59 41.88849 -88.21888 5211 ft 250 kts 246°
2026-04-12 02:59 41.88273 -88.24071 4831 ft 251 kts 247°
2026-04-12 02:59 41.87695 -88.26295 4454 ft 251 kts 247°
2026-04-12 02:59 41.87133 -88.28489 4083 ft 250 kts 247°
2026-04-12 03:00 41.86758 -88.30781 3992 ft 254 kts 262°
2026-04-12 03:00 41.86900 -88.33129 3983 ft 261 kts 279°
2026-04-12 03:00 41.87572 -88.35459 3981 ft 269 kts 295°
2026-04-12 03:00 41.88720 -88.37479 3981 ft 276 kts 311°
2026-04-12 03:01 41.90264 -88.39042 3980 ft 281 kts 328°
2026-04-12 03:01 41.92097 -88.40018 3979 ft 286 kts 344°
2026-04-12 03:01 41.94049 -88.40321 3979 ft 287 kts
2026-04-12 03:01 41.96037 -88.39926 3979 ft 288 kts 17°
2026-04-12 03:02 41.97860 -88.38866 3981 ft 286 kts 34°
2026-04-12 03:02 41.99368 -88.37159 3986 ft 279 kts 63°
2026-04-12 03:02 41.99743 -88.34725 4221 ft 267 kts 101°
2026-04-12 03:02 41.99408 -88.32303 4257 ft 263 kts 109°
2026-04-12 03:03 41.98972 -88.29932 4251 ft 249 kts 109°
2026-04-12 03:03 41.98592 -88.27816 4350 ft 223 kts 109°
2026-04-12 03:03 41.98264 -88.25837 4274 ft 211 kts 108°
2026-04-12 03:03 41.97979 -88.23923 4212 ft 209 kts 108°
2026-04-12 03:04 41.97687 -88.22023 3975 ft 210 kts 109°
2026-04-12 03:04 41.97446 -88.20092 3869 ft 207 kts 105°
2026-04-12 03:04 41.97253 -88.18203 3768 ft 200 kts 104°
2026-04-12 03:04 41.97086 -88.16385 3594 ft 197 kts 104°
2026-04-12 03:05 41.96922 -88.14542 3400 ft 196 kts 103°
2026-04-12 03:05 41.96738 -88.12763 3512 ft 193 kts 101°
2026-04-12 03:05 41.96624 -88.10935 3312 ft 199 kts 105°
2026-04-12 03:05 41.96561 -88.09129 3076 ft 186 kts 96°
2026-04-12 03:06 41.96610 -88.07469 2870 ft 167 kts 95°
2026-04-12 03:06 41.96684 -88.06052 2760 ft 145 kts 96°
2026-04-12 03:06 41.96729 -88.04712 2382 ft 142 kts 96°
2026-04-12 03:06 41.96713 -88.03404 2021 ft 136 kts 101°
2026-04-12 03:07 41.96648 -88.02181 1790 ft 125 kts 101°
2026-04-12 03:07 41.96606 -88.01041 1657 ft 121 kts 98°
2026-04-12 03:07 41.96590 -87.99885 1609 ft 124 kts 97°
2026-04-12 03:07 41.96569 -87.98716 1493 ft 125 kts 96°
2026-04-12 03:08 41.96570 -87.97505 1281 ft 131 kts 94°
2026-04-12 03:08 41.96572 -87.96317 1082 ft 125 kts 93°
2026-04-12 03:08 41.96581 -87.95147 965 ft 129 kts 92°
2026-04-12 03:08 41.96582 -87.93938 820 ft 127 kts 92°
2026-04-12 03:09 41.96572 -87.92761 681 ft 123 kts 90°
2026-04-12 03:09 41.96574 -87.91838 666 ft 63 kts 90°
2026-04-12 03:09 41.96621 -87.91404 668 ft 43 kts 64°
2026-04-12 03:09 41.96702 -87.91190 666 ft 5 kts 62°
2026-04-12 03:10 41.96738 -87.90983 666 ft 37 kts 88°
2026-04-12 03:10 41.96738 -87.90623 663 ft 37 kts 90°
2026-04-12 03:10 41.96737 -87.90273 660 ft 37 kts 90°
2026-04-12 03:10 41.96738 -87.89912 651 ft 39 kts 89°
2026-04-12 03:11 41.96741 -87.89546 648 ft 39 kts 89°
2026-04-12 03:11 41.96740 -87.89304 648 ft 23 kts 95°
2026-04-12 03:11 41.96789 -87.89108 650 ft 22 kts 48°
2026-04-12 03:11 41.96932 -87.89065 653 ft 22 kts
2026-04-12 03:12 41.97022 -87.89071 653 ft 4 kts 356°
2026-04-12 03:12 41.97053 -87.89075 653 ft 5 kts 351°
2026-04-12 03:12 41.97093 -87.89078 653 ft 7 kts 20°
2026-04-12 03:12 41.97155 -87.89061 653 ft 11 kts 342°
2026-04-12 03:13 41.97193 -87.89168 652 ft 16 kts 271°